Location: Austin
(30.3000°N, 97.7500°W)
Time: 07:43:26
(UTC-05:00)

Intelsat 5-1 Rocket - Pass Details

Date: 19 September 2023
Orbit: 311 x 7277 km, 23.9° (Epoch: 25 September)

Event Time Altitude Azimuth Distance (km) Brightness Sun altitude
Exits shadow 05:10:23 44° 179° (S) 1,321 3.5 -27.7°
Maximum altitude 05:11:02 46° 162° (SSE) 1,380 3.7 -27.6°
Drops below altitude 10° 05:22:12 10° 94° (E) 5,133 7.6 -25.3°
Sets 05:29:06 0° 90° (E) 7,430 8.8 -23.9°
